Time,TemperatureF,DewpointF,PressureIn,WindDirection,WindDirectionDegrees,WindSpeedMPH,WindSpeedGustMPH,Humidity,HourlyPrecipIn,Conditions,Clouds,dailyrainin,SolarRadiationWatts/m^2,SoftwareType,DateUTC
2013-03-28 14:52:00,48.0,19.0,-100.00,NNW,331,4.0,11.0,31,-99.99,,,0.00,847.000000,,2013-03-28 18:52:00,
2013-03-28 15:02:00,48.0,19.0,-100.00,NNW,331,4.0,11.0,31,-99.99,,,0.00,847.000000,,2013-03-28 19:02:00,
2013-03-28 15:43:00,51.0,21.0,-100.00,SE,139,2.0,11.0,31,0.00,,,0.00,821.000000,,2013-03-28 19:43:00,
2013-03-28 15:52:00,51.0,21.0,-100.00,SE,139,2.0,11.0,31,0.00,,,0.00,821.000000,,2013-03-28 19:52:00,
2013-03-28 16:03:00,51.0,21.0,-100.00,SE,139,2.0,11.0,31,0.00,,,0.00,821.000000,,2013-03-28 20:03:00,
2013-03-28 16:33:00,53.0,22.0,-100.00,NE,36,3.0,12.0,29,0.00,,,0.00,728.000000,,2013-03-28 20:33:00,
2013-03-28 16:42:00,53.0,22.0,-100.00,NE,36,3.0,12.0,29,0.00,,,0.00,728.000000,,2013-03-28 20:42:00,
2013-03-28 16:53:00,53.0,22.0,-100.00,NE,36,3.0,12.0,29,0.00,,,0.00,728.000000,,2013-03-28 20:53:00,
2013-03-28 17:02:00,53.0,22.0,-100.00,NE,36,3.0,12.0,29,0.00,,,0.00,728.000000,,2013-03-28 21:02:00,
2013-03-28 17:43:00,54.0,21.0,-100.00,NNW,340,3.0,8.0,27,0.00,,,0.00,589.000000,,2013-03-28 21:43:00,
2013-03-28 17:53:00,54.0,21.0,-100.00,NNW,340,3.0,8.0,27,0.00,,,0.00,589.000000,,2013-03-28 21:53:00,
2013-03-28 18:02:00,54.0,21.0,-100.00,NNW,340,3.0,8.0,27,0.00,,,0.00,589.000000,,2013-03-28 22:02:00,
2013-03-28 18:32:00,53.0,19.0,-100.00,NE,37,2.0,9.0,26,0.00,,,0.00,410.000000,,2013-03-28 22:32:00,
2013-03-28 18:42:00,53.0,19.0,-100.00,NE,37,2.0,9.0,26,0.00,,,0.00,410.000000,,2013-03-28 22:42:00,
2013-03-28 18:52:00,53.0,19.0,-100.00,NE,37,2.0,9.0,26,0.00,,,0.00,410.000000,,2013-03-28 22:52:00,
2013-03-28 19:03:00,53.0,19.0,-100.00,NE,37,2.0,9.0,26,0.00,,,0.00,410.000000,,2013-03-28 23:03:00,
2013-03-28 19:32:00,52.0,20.0,-100.00,NNE,31,1.0,8.0,28,0.00,,,0.00,221.000000,,2013-03-28 23:32:00,
2013-03-28 19:42:00,52.0,20.0,-100.00,NNE,31,1.0,8.0,28,0.00,,,0.00,221.000000,,2013-03-28 23:42:00,
2013-03-28 19:53:00,52.0,20.0,-100.00,NNE,31,1.0,8.0,28,0.00,,,0.00,221.000000,,2013-03-28 23:53:00,
2013-03-28 20:02:00,52.0,20.0,-100.00,NNE,31,1.0,8.0,28,0.00,,,0.00,221.000000,,2013-03-29 00:02:00,
2013-03-28 21:33:00,43.0,22.0,-100.00,SW,234,0.0,1.0,42,-99.99,,,-99.99,0.000000,,2013-03-29 01:33:00,
2013-03-28 21:42:00,43.0,22.0,-100.00,SW,234,0.0,1.0,42,-99.99,,,-99.99,0.000000,,2013-03-29 01:42:00,
2013-03-28 21:52:00,43.0,22.0,-100.00,SW,234,0.0,1.0,42,-99.99,,,-99.99,0.000000,,2013-03-29 01:52:00,
2013-03-28 22:02:00,43.0,22.0,-100.00,SW,234,0.0,1.0,42,-99.99,,,-99.99,0.000000,,2013-03-29 02:02:00,
2013-03-28 22:42:00,41.0,21.0,-100.00,West,259,1.0,4.0,45,0.00,,,-99.99,0.000000,,2013-03-29 02:42:00,
2013-03-28 22:53:00,41.0,21.0,-100.00,West,259,1.0,4.0,45,0.00,,,-99.99,0.000000,,2013-03-29 02:53:00,
2013-03-28 23:02:00,41.0,21.0,-100.00,West,259,1.0,4.0,45,0.00,,,-99.99,0.000000,,2013-03-29 03:02:00,
2013-03-28 23:43:00,40.0,21.0,-100.00,West,275,2.0,4.0,47,0.00,,,-99.99,0.000000,,2013-03-29 03:43:00,
2013-03-28 23:53:00,40.0,21.0,-100.00,West,275,2.0,4.0,47,0.00,,,-99.99,0.000000,,2013-03-29 03:53:00,